PROBA-1 1 26958U 01049B 26262.97746079 .00002000 00000+0 13079-3 0 9995 2 26958 97.9628 274.8562 0054840 160.8363 199.4944 15.07818203357904 CUTE-1 (CO-55) 1 27844U 03031E 26262.30825485 .00000177 00000+0 95427-4 0 9990 2 27844 98.6773 269.7000 0008369 273.0739 86.9482 14.24383016205071 CUBESAT XI-IV (CO-57) 1 27848U 03031J 26262.97670075 .00000139 00000+0 80276-4 0 9994 2 27848 98.6806 269.9965 0008369 292.3957 67.6334 14.23661736204865 APRIZESAT 4 1 35684U 09041D 26262.92768973 .00000394 00000+0 53568-4 0 9995 2 35684 98.1340 340.1032 0043494 16.0454 344.2126 14.83994133925418 APRIZESAT 3 1 35686U 09041F 26262.72032482 .00001552 00000+0 13721-3 0 9997 2 35686 98.2190 60.5655 0062713 114.5458 246.2316 14.96465185930514 PROBA-2 1 36037U 09059B 26262.73700136 .00000098 00000+0 33410-4 0 9998 2 36037 98.2482 84.8067 0013109 354.3567 5.7481 14.54895045895275 APRIZESAT 5 1 37792U 11044E 26262.65312344 .00000672 00000+0 91652-4 0 9995 2 37792 98.2482 198.3885 0053277 59.2071 301.4369 14.81214880812771 APRIZESAT 6 1 37793U 11044F 26262.53916912 .00000378 00000+0 60662-4 0 9994 2 37793 98.2283 174.9314 0043767 142.5206 31.9123 14.77025845811078 PROBA-V 1 39159U 13021A 26262.93263854 .00000043 00000+0 37109-4 0 9992 2 39159 98.3713 236.9149 0003517 200.3461 159.7579 14.23613638694599 APRIZESAT 7 1 39416U 13066A 26262.33537238 .00000809 00000+0 85233-4 0 9992 2 39416 97.7808 214.2569 0034105 258.8826 100.8558 14.91754967695263 APRIZESAT 8 1 39425U 13066K 26262.57176631 .00000737 00000+0 85486-4 0 9994 2 39425 97.8303 208.7648 0045212 337.1771 22.7435 14.87801629693707 BUGSAT-1 (TITA) 1 40014U 14033E 26262.94871823 .00002583 00000+0 13580-3 0 9997 2 40014 98.0422 1.0963 0026676 214.7861 145.1627 15.16402215670197 SAUDISAT 4 1 40016U 14033G 26262.66194915 .00000461 00000+0 67284-4 0 9992 2 40016 97.7726 45.6141 0045871 124.9602 235.5931 14.79644546660045 APRIZESAT 9 1 40018U 14033J 26262.14148293 .00000386 00000+0 64276-4 0 9999 2 40018 97.9193 33.1178 0064652 258.0209 101.3748 14.74308743657402 APRIZESAT 10 1 40019U 14033K 26262.06959716 .00000262 00000+0 49237-4 0 9994 2 40019 97.9768 26.9975 0078051 334.9565 24.7864 14.70968190656054 TECHDEMOSAT-1 (TDS-1) 1 40076U 14037H 26262.80679583 .00005289 00000+0 29168-3 0 9998 2 40076 98.3887 264.5257 0004806 320.8514 39.2367 15.14474002662545 TECHNOSAT 1 42829U 17042E 26262.38268155 .00002954 00000+0 20928-3 0 9998 2 42829 97.4405 56.5585 0018400 129.9303 230.3545 15.05421645500875 FLYING LAPTOP 1 42831U 17042G 26262.95654352 .00001743 00000+0 13851-3 0 9994 2 42831 97.5016 55.1077 0017059 155.5510 204.6528 15.01609404500672 HAWK-A 1 43765U 18099H 26262.95451543 .00004170 00000+0 16416-3 0 9998 2 43765 97.3815 313.9710 0032580 313.2454 46.6066 15.25698908427547 HAWK-B 1 43794U 18099AN 26262.96107954 .00003785 00000+0 15835-3 0 9990 2 43794 97.3867 313.1876 0030340 333.1636 26.8030 15.23779385427465 HAWK-C 1 43799U 18099AT 26262.38230987 .00005124 00000+0 17871-3 0 9995 2 43799 97.3791 314.7978 0037824 313.1713 46.6367 15.29391356428305 SALSAT 1 46495U 20068K 26262.29850250 .00005216 00000+0 17704-3 0 9998 2 46495 97.8891 271.1983 0008675 342.6646 17.4296 15.30970049329753 HAWK-2C 1 47502U 21006CT 26262.33896451 .00004187 00000+0 12297-3 0 9997 2 47502 97.2198 304.7919 0005722 209.3251 150.7673 15.35669570313943 HAWK-2A 1 47505U 21006CW 26262.86047579 .00004077 00000+0 11961-3 0 9992 2 47505 97.2235 306.0386 0005219 211.1638 148.9297 15.35715139314026 HAWK-2B 1 47508U 21006CZ 26262.84806347 .00004530 00000+0 13194-3 0 9993 2 47508 97.2108 304.2125 0005713 208.1559 151.9378 15.35881085314024 HAWK-3B 1 48931U 21059BE 26262.82104052 .00052191 00000+0 30830-3 0 9996 2 48931 97.6558 109.0456 0002847 346.2102 13.9085 15.77994895292734 HAWK-3C 1 48948U 21059BX 26261.10844533 .00047316 00000+0 28185-3 0 9992 2 48948 97.6649 112.9853 0003005 357.5839 2.5411 15.77825614292465 HAWK-3A 1 48957U 21059CG 26262.37670429 .00052869 00000+0 31285-3 0 9997 2 48957 97.6608 111.5227 0003002 351.4373 8.6841 15.77952987292663 HAWK-5C 1 52754U 22057Y 26262.89506844 .00014743 00000+0 22592-3 0 9992 2 52754 97.6685 68.9565 0004616 86.4388 273.7393 15.54434135241049 HAWK-5B 1 52756U 22057AA 26262.89494496 .00014572 00000+0 22336-3 0 9999 2 52756 97.6701 67.3224 0005361 81.3789 278.8071 15.54427368241041 HAWK-5A 1 52757U 22057AB 26262.89473387 .00014887 00000+0 22809-3 0 9990 2 52757 97.6695 68.1484 0005292 84.2369 275.9487 15.54432956241048 HAWK-6B 1 55324U 23011A 26262.98351375 .00003860 00000+0 16569-3 0 9991 2 55324 40.4981 158.8432 0003026 312.2710 47.7843 15.23645501202307 HAWK-6C 1 55326U 23011C 26262.06521013 .00004367 00000+0 18632-3 0 9996 2 55326 40.4953 161.0342 0004161 305.1291 54.9128 15.23653122202179 HAWK-6A 1 55327U 23011D 26262.98289316 .00003361 00000+0 14533-3 0 9994 2 55327 40.4975 157.3083 0003742 304.2367 55.8087 15.23644224202315 HAWK-7A 1 56191U 23054P 26262.62100995 .00003712 00000+0 13764-3 0 9992 2 56191 97.2540 147.5354 0004630 71.8893 288.2850 15.28209986191441 HAWK-7B 1 56193U 23054R 26262.48998223 .00003278 00000+0 12187-3 0 9992 2 56193 97.2563 145.7047 0003793 81.5326 278.6343 15.28208695191429 HAWK-7C 1 56200U 23054Y 26262.94820539 .00001737 00000+0 65805-4 0 9990 2 56200 97.2543 146.8898 0004057 71.9583 288.2099 15.28202667191499